Location: Chittendens Corners
(41.2320°N, 81.4940°W)
Time: 23:33:16
(UTC+00:00)

OAO 2 Rocket - Pass Details

Date: 29 October 2020
Orbit: 676 x 746 km, 35.0° (Epoch: 29 November)

Event Time Altitude Azimuth Distance (km) Brightness Sun altitude
Rises 23:36:56 0° 254° (WSW) 3,068 8.4 -14.2°
Reaches altitude 10° 23:39:27 10° 248° (WSW) 2,140 7.1 -14.6°
Maximum altitude 23:44:08 41° 179° (S) 991 4.1 -15.5°
Enters shadow 23:46:57 21° 121° (ESE) 1,507 4.6 -16.0°
